Карточка аэропорта UUYY

Внимание!
Информация на этой странице в стадии наполнения.
Если вы не увидели какой-то информации, или заметили неточность - пожалуйста сообщите нам!
Спасибо!
Команда RU-STAFF
Название аэропортаСыктывкар
Название аэропорта (англ.)Syktyvkar
Превышение341 ft. (103.9 m.)
Координаты61°38.502', 50°50.298'
Высота перехода700
Эшелон переходаQFE>760: FL40; 760>QFE>733: FL50; 733 >QFE :FL60;
Коды ответчика3130-3134, 5752-5757, 5770-5777, 6701-6717
Зона ОрВДСанкт-Петербург РПИ (ULLL)
Данные METARUUYY 070930Z 19004MPS 9999 SCT036CB 28/14 Q1014 R18/61D NOSIG RMK QFE752/1003
Проноз погоды (TAF)UUYY 070800Z 0709/0809 22003G08MPS 9999 BKN020CB TEMPO 0709/0718 20005G14MPS 6000 -TSRA BKN017CB TEMPO 0806/0809 6000 -TSRA BKN017CB
NOTAMshow/hide NOTAM
AWOS   TABLE

Информация о ВПП

ВПП Длина ВПП (м.) Покрытие Курс ВПП Частота ILS
012500Асфальтобетон6108.3
192500Асфальтобетон186111.7

Диспетчерские позиции

Позывной Наименование органа УВД Частота
UUYY_TWRСивкар-Старт124.600
UUYY_R_APPСивкар-Круг124.600



Спутниковое изображение